Location: Unspecified
(51.5147°N, 7.4673°E)
Time: 03:49:44
(UTC+01:00)

Explorer 7 - Pass Details

Date: 21 February 2026
Orbit: 430 x 542 km, 50.2° (Epoch: 5 March)

Event Time Altitude Azimuth Distance (km) Brightness Sun altitude
Rises 17:49:49 0° 274° (W) 2,469 11.7 0.1°
Reaches altitude 10° 17:51:56 10° 272° (W) 1,613 10.8 -0.2°
Maximum altitude 17:55:33 66° 190° (S) 524 6.9 -0.8°
Drops below altitude 10° 17:59:19 10° 108° (ESE) 1,678 8.8 -1.3°
Sets 18:01:33 0° 106° (ESE) 2,580 9.7 -1.7°
